Location: Newark
(41.5333°N, 45.0000°E)
Time: 16:41:46
(UTC+00:00)

ISS - Visible Passes

Search period start: 28 January 2020 00:00
Search period end: 07 February 2020 00:00
Orbit: 415 x 423 km, 51.6° (Epoch: 29 January)

Date Brightness Start Highest point End Pass type
(mag) Time Alt. Az. Time Alt. Az. Time Alt. Az.
28 Jan -1.3 15:59:02 10° NW 16:00:43 15° N 16:00:43 15° N visible
29 Jan -1.5 15:11:08 10° NW 15:13:14 15° N 15:15:06 11° NNE visible
30 Jan -1.4 16:00:59 10° NNW 16:02:28 15° N 16:02:28 15° N visible
31 Jan -1.5 15:13:20 10° NNW 15:15:24 15° N 15:16:52 12° NNE visible
01 Feb -1.8 16:02:29 10° NW 16:04:17 20° N 16:04:17 20° N visible
02 Feb -1.9 15:14:58 10° NNW 15:17:28 19° NNE 15:18:46 16° NE visible
02 Feb -0.6 16:51:23 10° NW 16:51:45 12° NW 16:51:45 12° NW visible
03 Feb -2.7 16:03:50 10° NW 16:06:19 36° N 16:06:19 36° N visible
04 Feb -2.7 15:16:20 10° NW 15:19:22 30° NNE 15:20:58 20° ENE visible
04 Feb -0.8 16:53:02 10° WNW 16:53:57 17° WNW 16:53:57 17° WNW visible
05 Feb -3.7 16:05:18 10° WNW 16:08:41 73° SW 16:08:44 73° SSW visible
06 Feb -3.8 15:17:40 10° NW 15:21:02 67° NNE 15:23:43 15° ESE visible
06 Feb -0.7 16:55:30 10° W 16:56:43 14° WSW 16:56:43 14° WSW visible
